This is the latest recevied weather packets stored in our database for station/object KC8ZBC. If no packets are shown the sender has not sent any weather packets the latest 10 day(s).
| Time | Temp. | Humidity | Pressure | Rain* | Wind** | Luminosity | Snow |
|---|---|---|---|---|---|---|---|
| 1777786202 | 2.22° C | 72% | 989.9 hPa | 0 mm | - | 0 W/m² | - |
| 1777785900 | 2.22° C | 74% | 990 hPa | 0 mm | - | 0 W/m² | - |
| 1777785596 | 2.22° C | 72% | 989.9 hPa | 0 mm | - | 0 W/m² | - |
| 1777785292 | 2.22° C | 72% | 989.9 hPa | 0 mm | - | 0 W/m² | - |
| 1777784989 | 1.67° C | 74% | 990.1 hPa | 0 mm | - | 0 W/m² | - |
| 1777784685 | 1.67° C | 73% | 989.9 hPa | 0 mm | - | 0 W/m² | - |
| 1777784383 | 1.67° C | 74% | 990 hPa | 0 mm | - | 0 W/m² | - |
| 1777784080 | 2.22° C | 74% | 990 hPa | 0 mm | - | 0 W/m² | - |
| 1777783777 | 2.22° C | 74% | 990 hPa | 0 mm | - | 0 W/m² | - |
| 1777783473 | 2.22° C | 74% | 990 hPa | 0 mm | - | 0 W/m² | - |
| 1777783171 | 2.22° C | 73% | 990 hPa | 0 mm | - | 0 W/m² | - |
| 1777782867 | 2.22° C | 73% | 990.2 hPa | 0 mm | - | 0 W/m² | - |
| 1777782564 | 2.22° C | 72% | 990.1 hPa | 0 mm | - | 0 W/m² | - |
| 1777782261 | 2.22° C | 72% | 990.3 hPa | 0 mm | - | 0 W/m² | - |
| 1777781957 | 2.78° C | 74% | 990.1 hPa | 0 mm | - | 0 W/m² | - |
| 1777781654 | 2.78° C | 71% | 990.2 hPa | 0 mm | - | 0 W/m² | - |
| 1777781351 | 2.78° C | 72% | 990.2 hPa | 0 mm | - | 0 W/m² | - |
| 1777781049 | 2.22° C | 73% | 990.1 hPa | 0 mm | - | 0 W/m² | - |
| 1777780746 | 2.22° C | 73% | 990.1 hPa | 0 mm | - | 0 W/m² | - |
| 1777780443 | 2.78° C | 74% | 990.3 hPa | 0 mm | - | 0 W/m² | - |
| 1777780140 | 2.78° C | 75% | 990.1 hPa | 0 mm | - | 0 W/m² | - |
| 1777779838 | 2.78° C | 74% | 990.3 hPa | 0 mm | - | 0 W/m² | - |
| 1777779534 | 2.78° C | 74% | 990.2 hPa | 0 mm | - | 0 W/m² | - |
| 1777779232 | 2.78° C | 74% | 990.2 hPa | 0 mm | - | 0 W/m² | - |
| 1777778929 | 2.78° C | 75% | 990.3 hPa | 0 mm | - | 0 W/m² | - |
* Rain latest hour (hover to see other rain measurements)
** Current wind speed in m/s (hover to see current wind gust speed)